STARLINK-5160, 54080

Orbit data source: Space-Track

STARLINK-5160, 54080 is a payload satellite owned by SpaceX/Seattle (US) in LEO that was launched on Thu, 20 Oct 2022 UTC via an FALCON 9 launch vehicle from the Air Force Eastern Test Range (AFETR). Payload-class satellites include a variety of spacecraft equipped with specific instruments for various scientific and technological missions. These include communications satellites like Starlink; space stations such as the ISS; scientific satellites like the Hubble; Earth observation satellites from companies like Planet Labs, Umbra, and HawkEye 360; GPS; miniature CubeSats for education and research; and military/defense satellites.

Loading next visibility...
Identifier
54080, 2022-136AF
Orbit
LEO
Last TLE update
11 hours ago
Origin
Manufacturer
SpaceX/Seattle
Mission
Operational Commercial Communications
Bus & Motor
STARLINK, Unknown motor
Mass
305 kg wet, ~290 kg dry
Launch date (UTC)
2022-10-20 (3 years ago)
Launch vehicle
FALCON 9
Launch site
Air Force Eastern Test Range (AFETR)
Object type
Payload
Rocket body
Debris
Shape & HBR
Box + 1 Pan, 8.86 m
Radar Cross Section
13.562 m², Large (>1 m²)

Expand to show TLE details & history

TLE from 11 hours ago
0 STARLINK-5160
1 54080U 22136AF  25181.98955133  .00000248  00000-0  33684-4 0  9993
2 54080  53.2186  29.2112 0001427  88.3835 271.7321 15.08841289149395
Epoch: 2025-06-30T23:44Z
TLE epoch observation values (Epoch: 2025-06-30T23:44:57.234Z)
Latitude
-0.00001°
Longitude
113.68127°
Altitude
540.607 km
Speed
7.593 km/s
True Right ascension
01h 56m 50s
True Declination
0° 00' 00"
Sunlit
Object was in daylight at epoch
Visualization orbit readout
Latitude
-49.96936°
Longitude
49.39464°
Altitude
557.932 km
Speed
7.582 km/s
Apparent Right ascension
13h 43m 26s
Apparent Declination
-85° 12' 29"
Sunlit
Object is in full shadow
Visualization observer readout
Local Sidereal Time
22:11:53
Azimuth
185.2° SSW
Elevation
-42.694°
Doppler factor
1
Orbital elements
Apogee altitude
540.971 km
Perigee altitude
538.997 km
Semi-major axis
6,918.121 km
Eccentricity
0.00014
Inclination
53.2186°
RAAN
29.2112°
Arg. of periapsis
88.3835°
True anomaly
Unknown
Mean anomaly
271.7321°
Eccentric anomaly
Unknown
Mean motion
3.77191 °/min
Orbital period
95.44 mins
BSTAR
0.000033684
Loading maneuver chart data...
Loading SW <> Apogee altitude chart data...
Loading historical data...
Loading historical data...
Loading historical data...
Loading historical data...
Loading historical data...
Loading historical data...
Loading historical data...

STARLINK-5160 Visibility forecast

Observer location: undefined°, undefined°

Span
Click to sort rows by Start time (UTC) header in descending order
Start Az.
Max El. time (UTC)
Max El. Az.
Max El.
End time (UTC)
End Az.
6 mins2025-07-01 15:48:25.012Z188.686° SSW2025-07-01 15:51:25.012Z121.463° SE28.307°2025-07-01 15:54:25.012Z69.374° E
5 mins2025-07-01 17:28:25.012Z276.232° WNW2025-07-01 17:30:25.012Z329.259° NNW30.798°2025-07-01 17:33:25.012Z32.003° NE
6 mins2025-07-01 22:29:25.012Z335.265° NNW2025-07-01 22:31:25.012Z20.237° NNE30.087°2025-07-01 22:35:25.012Z98.999° ESE
6 mins2025-07-02 00:08:25.012Z285.195° WNW2025-07-02 00:11:25.012Z215.317° SW28.623°2025-07-02 00:14:25.012Z164.823° S
|